Weather History for KBHK - October, 2014

Change the Weather History Date:

Saturday, October 18, 2014

  Actual Average Record
Temperature  
Mean Temperature 53 °F -  
Max Temperature 70 °F 66 °F 79 °F (2000)
Min Temperature 36 °F 36 °F 21 °F (2002)
Degree Days  
Heating Degree Days 12    
Growing Degree Days 3 (Base 50)    
Moisture  
Dew Point 37 °F    
Average Humidity 60    
Maximum Humidity 89    
Minimum Humidity 30    
Precipitation  
Precipitation 0.00 in - - ()
Sea Level Pressure  
Sea Level Pressure 29.98 in    
Wind  
Wind Speed 11 mph (SSW)    
Max Wind Speed 17 mph    
Max Gust Speed 26 mph    
Visibility 7 miles    
Events Rain , Snow    
Averages and records for this station are not official NWS values.
T = Trace of Precipitation, MM = Missing Value Source: NWS Daily Summary

Daily Weather History Graph

Daily Weather History Graph

Search for Another Location

Airport or City:

Trip Planner

Search our weather history database for the weather conditions in past years. The results will help you decide how hot, cold, wet, or windy it might be!

Date:

Astronomy

Oct. 18, 2014 Rise Set
Actual Time 7:18 AM MDT 6:05 PM MDT
Civil Twilight 6:48 AM MDT 6:35 PM MDT
Nautical Twilight 6:13 AM MDT 7:10 PM MDT
Astronomical Twilight 5:38 AM MDT 7:45 PM MDT
Moon 2:02 AM MDT (10/18) 3:41 PM MDT (10/18)
Length of Visible Light 11h 47m
Length of Day
10h 46m
Waning Crescent, 24% of the Moon is Illuminated
Oct 18
Waning Crescent
Oct 23
New
Oct 30
First Quarter
Nov 6
Full
Nov 14
Last Quarter

Hourly Weather History & Observations

Time (MDT) Temp. Windchill Dew Point Humidity Pressure Visibility Wind Dir Wind Speed Gust Speed Precip Events Conditions
12:51 AM 36.0 °F 28.0 °F 32.0 °F 86% 30.14 in 10.0 mi SE 11.5 mph - N/A   Clear
1:51 AM 37.0 °F 28.9 °F 33.1 °F 86% 30.12 in 9.0 mi SE 12.7 mph - 0.00 in Snow Light Snow
2:51 AM 36.0 °F 28.0 °F 33.1 °F 89% 30.09 in 10.0 mi SE 11.5 mph - 0.00 in   Clear
3:51 AM 36.0 °F 27.1 °F 33.1 °F 89% 30.08 in 9.0 mi SE 13.8 mph - 0.00 in Snow Light Snow
4:51 AM 37.0 °F 27.7 °F 33.1 °F 86% 30.06 in 9.0 mi SSE 16.1 mph - 0.00 in Snow Light Snow
5:51 AM 37.0 °F 27.4 °F 34.0 °F 89% 30.06 in 9.0 mi SE 17.3 mph 26.5 mph 0.00 in Snow Light Snow
6:51 AM 37.0 °F 27.4 °F 34.0 °F 89% 30.06 in 9.0 mi SSE 17.3 mph - 0.00 in Snow Light Snow
7:51 AM 37.9 °F 28.9 °F 35.1 °F 89% 30.06 in 9.0 mi SSE 16.1 mph - 0.00 in Snow Light Snow
8:51 AM 42.1 °F 34.5 °F 36.0 °F 79% 30.06 in 10.0 mi SSE 15.0 mph - 0.00 in Rain Light Rain
9:51 AM 48.0 °F - 39.0 °F 71% 30.03 in 10.0 mi SE 11.5 mph - 0.00 in Rain Light Rain
10:51 AM 55.9 °F - 39.9 °F 55% 29.99 in 10.0 mi South 16.1 mph - 0.00 in Rain Light Rain
11:51 AM 63.0 °F - 41.0 °F 45% 29.95 in 10.0 mi South 11.5 mph - 0.00 in   Clear
12:34 PM 64.9 °F - 39.0 °F 39% 29.94 in 2.0 mi WSW 12.7 mph - N/A   Haze
12:39 PM 64.9 °F - 39.0 °F 39% 29.94 in 1.5 mi WSW 15.0 mph - N/A   Haze
12:51 PM 64.9 °F - 39.9 °F 40% 29.94 in 2.5 mi SW 8.1 mph - N/A   Haze
12:57 PM 64.9 °F - 39.9 °F 40% 29.93 in 4.0 mi SW 12.7 mph - N/A   Haze
1:51 PM 66.0 °F - 39.0 °F 37% 29.91 in 8.0 mi WSW 10.4 mph - N/A   Clear
2:32 PM 69.1 °F - 39.0 °F 33% 29.91 in 2.5 mi West 9.2 mph - N/A   Haze
2:39 PM 69.1 °F - 37.9 °F 32% 29.91 in 5.0 mi WSW 10.4 mph - N/A   Haze
2:51 PM 70.0 °F - 37.9 °F 31% 29.90 in 4.0 mi WSW 9.2 mph - N/A   Haze
3:13 PM 70.0 °F - 37.9 °F 31% 29.90 in 2.5 mi West 9.2 mph - N/A   Haze
3:51 PM 70.0 °F - 37.9 °F 31% 29.90 in 2.5 mi WSW 11.5 mph - N/A   Haze
4:05 PM 70.0 °F - 37.0 °F 30% 29.90 in 3.0 mi West 10.4 mph - N/A   Haze
4:51 PM 66.9 °F - 37.9 °F 34% 29.90 in - West 10.4 mph - N/A   Clear
5:51 PM 61.0 °F - 39.0 °F 44% 29.90 in - WSW 8.1 mph - N/A   Clear
6:51 PM 55.9 °F - 37.9 °F 51% 29.92 in - Calm Calm - N/A   Clear
7:51 PM 51.1 °F - 37.9 °F 61% 29.94 in - Calm Calm - N/A   Clear
8:51 PM 48.0 °F - 39.0 °F 71% 29.95 in - Calm Calm - N/A   Clear
9:51 PM 43.0 °F - 35.1 °F 74% 29.95 in - Calm Calm - N/A   Clear
10:51 PM 44.1 °F - 36.0 °F 73% 29.94 in - Calm Calm - N/A   Clear
11:51 PM 39.0 °F - 34.0 °F 82% 29.94 in - Calm Calm - N/A   Clear